Time,TemperatureF,DewpointF,PressureIn,WindDirection,WindDirectionDegrees,WindSpeedMPH,WindSpeedGustMPH,Humidity,HourlyPrecipIn,Conditions,Clouds,dailyrainin,SoftwareType,DateUTC
2013-07-19 00:05:00,82.6,67.8,29.88,SW,214,2.0,2.0,61,0.00,,,0.00,Wunderground v.1.15,2013-07-19 05:05:00,
2013-07-19 00:10:00,82.5,67.7,29.88,SSW,193,1.0,2.0,61,0.00,,,0.00,Wunderground v.1.15,2013-07-19 05:10:00,
2013-07-19 00:20:00,82.3,67.5,29.88,South,184,2.0,2.0,61,0.00,,,0.00,Wunderground v.1.15,2013-07-19 05:20:00,
2013-07-19 00:30:00,82.3,67.5,29.88,SW,218,2.0,2.0,61,0.00,,,0.00,Wunderground v.1.15,2013-07-19 05:30:00,
2013-07-19 00:35:00,82.2,67.4,29.87,SSW,200,2.0,2.0,61,0.00,,,0.00,Wunderground v.1.15,2013-07-19 05:35:00,
2013-07-19 00:40:00,82.1,67.3,29.87,SSW,212,2.0,2.0,61,0.00,,,0.00,Wunderground v.1.15,2013-07-19 05:40:00,
2013-07-19 00:46:00,82.1,67.3,29.87,SSE,148,2.0,2.0,61,0.00,,,0.00,Wunderground v.1.15,2013-07-19 05:46:00,
2013-07-19 00:55:00,82.1,66.8,29.87,SSW,193,2.0,6.0,60,0.00,,,0.00,Wunderground v.1.15,2013-07-19 05:55:00,
2013-07-19 01:05:00,81.9,66.6,29.87,SSE,163,2.0,2.0,60,0.00,,,0.00,Wunderground v.1.15,2013-07-19 06:05:00,
2013-07-19 01:15:00,81.9,66.6,29.87,SW,227,2.0,2.0,60,0.00,,,0.00,Wunderground v.1.15,2013-07-19 06:15:00,
2013-07-19 01:25:00,81.9,66.2,29.86,SW,221,2.0,2.0,59,0.00,,,0.00,Wunderground v.1.15,2013-07-19 06:25:00,
2013-07-19 01:35:00,82.0,66.3,29.86,SSW,201,1.0,1.0,59,0.00,,,0.00,Wunderground v.1.15,2013-07-19 06:35:00,
2013-07-19 01:45:00,81.9,66.2,29.86,SSW,210,1.0,1.0,59,0.00,,,0.00,Wunderground v.1.15,2013-07-19 06:45:00,
2013-07-19 01:55:00,81.9,65.7,29.86,SSW,204,2.0,2.0,58,0.00,,,0.00,Wunderground v.1.15,2013-07-19 06:55:00,
2013-07-19 02:00:00,81.9,65.7,29.86,SSW,204,2.0,2.0,58,0.00,,,0.00,Wunderground v.1.15,2013-07-19 07:00:00,
2013-07-19 02:10:00,81.7,66.0,29.86,SSW,197,1.0,2.0,59,0.00,,,0.00,Wunderground v.1.15,2013-07-19 07:10:00,
2013-07-19 02:20:00,81.5,65.8,29.86,SW,217,1.0,1.0,59,0.00,,,0.00,Wunderground v.1.15,2013-07-19 07:20:00,
2013-07-19 02:35:00,81.1,65.9,29.86,South,187,2.0,2.0,60,0.00,,,0.00,Wunderground v.1.15,2013-07-19 07:35:00,
2013-07-19 02:46:00,80.8,65.6,29.85,SSE,167,1.0,1.0,60,0.00,,,0.00,Wunderground v.1.15,2013-07-19 07:46:00,
2013-07-19 02:55:00,80.3,65.6,29.85,South,181,1.0,1.0,61,0.00,,,0.00,Wunderground v.1.15,2013-07-19 07:55:00,
2013-07-19 03:01:00,80.2,65.5,29.86,SSW,195,1.0,1.0,61,0.00,,,0.00,Wunderground v.1.15,2013-07-19 08:01:00,
2013-07-19 03:10:00,80.0,65.3,29.85,SW,233,1.0,1.0,61,0.00,,,0.00,Wunderground v.1.15,2013-07-19 08:10:00,
2013-07-19 03:20:00,79.8,65.6,29.85,SSW,204,1.0,1.0,62,0.00,,,0.00,Wunderground v.1.15,2013-07-19 08:20:00,
2013-07-19 03:25:00,79.7,65.5,29.85,ESE,115,1.0,1.0,62,0.00,,,0.00,Wunderground v.1.15,2013-07-19 08:25:00,
2013-07-19 03:35:00,79.5,65.8,29.84,SSW,210,1.0,1.0,63,0.00,,,0.00,Wunderground v.1.15,2013-07-19 08:35:00,
2013-07-19 03:40:00,79.4,65.7,29.84,SSE,162,1.0,1.0,63,0.00,,,0.00,Wunderground v.1.15,2013-07-19 08:40:00,
2013-07-19 03:45:00,79.3,65.6,29.84,SSW,207,1.0,1.0,63,0.00,,,0.00,Wunderground v.1.15,2013-07-19 08:45:00,
2013-07-19 03:55:00,79.1,65.4,29.84,SSW,200,1.0,1.0,63,0.00,,,0.00,Wunderground v.1.15,2013-07-19 08:55:00,
2013-07-19 04:05:00,79.0,65.8,29.84,SW,219,1.0,2.0,64,0.00,,,0.00,Wunderground v.1.15,2013-07-19 09:05:00,
2013-07-19 04:10:00,78.9,65.7,29.84,SSW,202,1.0,1.0,64,0.00,,,0.00,Wunderground v.1.15,2013-07-19 09:10:00,
2013-07-19 04:20:00,78.6,65.8,29.84,SSW,198,0.0,0.0,65,0.00,,,0.00,Wunderground v.1.15,2013-07-19 09:20:00,
2013-07-19 04:25:00,78.5,65.8,29.83,SW,215,0.0,0.0,65,0.00,,,0.00,Wunderground v.1.15,2013-07-19 09:25:00,
2013-07-19 04:30:00,78.3,65.6,29.83,SSW,207,0.0,0.0,65,0.00,,,0.00,Wunderground v.1.15,2013-07-19 09:30:00,
2013-07-19 04:40:00,78.1,65.8,29.83,SSW,194,0.0,0.0,66,0.00,,,0.00,Wunderground v.1.15,2013-07-19 09:40:00,
2013-07-19 04:50:00,77.9,65.6,29.83,SW,214,1.0,1.0,66,0.00,,,0.00,Wunderground v.1.15,2013-07-19 09:50:00,
2013-07-19 04:55:00,77.8,66.0,29.83,SSW,198,0.0,1.0,67,0.00,,,0.00,Wunderground v.1.15,2013-07-19 09:55:00,
2013-07-19 05:05:00,77.5,65.7,29.83,SSW,200,0.0,0.0,67,0.00,,,0.00,Wunderground v.1.15,2013-07-19 10:05:00,
2013-07-19 05:10:00,77.4,66.0,29.83,SW,217,0.0,0.0,68,0.00,,,0.00,Wunderground v.1.15,2013-07-19 10:10:00,
2013-07-19 05:20:00,77.2,65.8,29.84,SW,225,0.0,1.0,68,0.00,,,0.00,Wunderground v.1.15,2013-07-19 10:20:00,
2013-07-19 05:25:00,77.1,65.7,29.84,SSW,207,0.0,1.0,68,0.00,,,0.00,Wunderground v.1.15,2013-07-19 10:25:00,
2013-07-19 05:30:00,77.0,65.6,29.84,SSW,204,0.0,0.0,68,0.00,,,0.00,Wunderground v.1.15,2013-07-19 10:30:00,
2013-07-19 05:40:00,77.0,66.0,29.84,South,188,0.0,0.0,69,0.00,,,0.00,Wunderground v.1.15,2013-07-19 10:40:00,
2013-07-19 05:50:00,77.0,65.6,29.84,SW,221,1.0,1.0,68,0.00,,,0.00,Wunderground v.1.15,2013-07-19 10:50:00,
2013-07-19 05:55:00,77.2,65.8,29.84,SSE,168,1.0,1.0,68,0.00,,,0.00,Wunderground v.1.15,2013-07-19 10:55:00,
2013-07-19 06:05:00,77.4,66.0,29.84,WSW,241,1.0,2.0,68,0.00,,,0.00,Wunderground v.1.15,2013-07-19 11:05:00,
2013-07-19 06:15:00,77.5,66.1,29.84,SW,221,1.0,1.0,68,0.00,,,0.00,Wunderground v.1.15,2013-07-19 11:15:00,
2013-07-19 06:20:00,77.4,66.0,29.84,SW,214,0.0,0.0,68,0.00,,,0.00,Wunderground v.1.15,2013-07-19 11:20:00,
2013-07-19 06:30:00,77.3,66.3,29.84,SSW,200,1.0,1.0,69,0.00,,,0.00,Wunderground v.1.15,2013-07-19 11:30:00,
2013-07-19 06:40:00,77.2,66.2,29.84,SSW,205,1.0,1.0,69,0.00,,,0.00,Wunderground v.1.15,2013-07-19 11:40:00,
2013-07-19 06:45:00,77.3,66.3,29.84,SW,215,1.0,1.0,69,0.00,,,0.00,Wunderground v.1.15,2013-07-19 11:45:00,
2013-07-19 06:55:00,77.2,66.2,29.84,SW,218,1.0,1.0,69,0.00,,,0.00,Wunderground v.1.15,2013-07-19 11:55:00,
2013-07-19 07:05:00,77.2,66.7,29.84,SW,217,1.0,2.0,70,0.00,,,0.00,Wunderground v.1.15,2013-07-19 12:05:00,
2013-07-19 07:10:00,77.1,67.0,29.84,SSW,211,1.0,1.0,71,0.00,,,0.00,Wunderground v.1.15,2013-07-19 12:10:00,
2013-07-19 07:20:00,77.0,66.5,29.84,South,187,1.0,1.0,70,0.00,,,0.00,Wunderground v.1.15,2013-07-19 12:20:00,
2013-07-19 07:30:00,77.1,67.0,29.84,SSW,204,1.0,2.0,71,0.00,,,0.00,Wunderground v.1.15,2013-07-19 12:30:00,
2013-07-19 07:35:00,77.2,67.1,29.84,South,181,1.0,2.0,71,0.00,,,0.00,Wunderground v.1.15,2013-07-19 12:35:00,
2013-07-19 07:45:00,77.4,67.3,29.84,SSE,155,0.0,1.0,71,0.00,,,0.00,Wunderground v.1.15,2013-07-19 12:45:00,
2013-07-19 07:50:00,77.6,67.4,29.85,SSE,167,0.0,1.0,71,0.00,,,0.00,Wunderground v.1.15,2013-07-19 12:50:00,
2013-07-19 08:00:00,77.9,67.7,29.85,SW,214,0.0,0.0,71,0.00,,,0.00,Wunderground v.1.15,2013-07-19 13:00:00,
2013-07-19 08:06:00,78.2,68.0,29.86,WSW,241,0.0,0.0,71,0.00,,,0.00,Wunderground v.1.15,2013-07-19 13:06:00,
2013-07-19 08:15:00,79.2,68.1,29.86,West,264,1.0,1.0,69,0.00,,,0.00,Wunderground v.1.15,2013-07-19 13:15:00,
2013-07-19 08:21:00,79.6,67.7,29.86,WSW,238,1.0,1.0,67,0.00,,,0.00,Wunderground v.1.15,2013-07-19 13:21:00,
2013-07-19 08:30:00,80.0,68.1,29.87,SSW,200,1.0,3.0,67,0.00,,,0.00,Wunderground v.1.15,2013-07-19 13:30:00,
2013-07-19 08:35:00,80.1,68.2,29.87,SW,218,2.0,3.0,67,0.00,,,0.00,Wunderground v.1.15,2013-07-19 13:35:00,
2013-07-19 08:40:00,80.1,68.2,29.87,SW,215,1.0,1.0,67,0.00,,,0.00,Wunderground v.1.15,2013-07-19 13:40:00,
2013-07-19 08:45:00,80.1,68.6,29.87,SW,225,1.0,1.0,68,0.00,,,0.00,Wunderground v.1.15,2013-07-19 13:45:00,
2013-07-19 08:55:00,80.1,68.2,29.87,WNW,285,0.0,0.0,67,0.00,,,0.00,Wunderground v.1.15,2013-07-19 13:55:00,
2013-07-19 09:05:00,80.2,68.2,29.87,SSE,166,0.0,1.0,67,0.00,,,0.00,Wunderground v.1.15,2013-07-19 14:05:00,
2013-07-19 09:10:00,80.3,68.3,29.87,West,263,0.0,0.0,67,0.00,,,0.00,Wunderground v.1.15,2013-07-19 14:10:00,
2013-07-19 09:20:00,80.2,68.2,29.87,SSW,193,0.0,1.0,67,0.00,,,0.00,Wunderground v.1.15,2013-07-19 14:20:00,
2013-07-19 09:30:00,80.1,68.6,29.87,SSE,160,0.0,1.0,68,0.00,,,0.00,Wunderground v.1.15,2013-07-19 14:30:00,
2013-07-19 09:35:00,80.1,68.6,29.86,SSW,212,1.0,1.0,68,0.00,,,0.00,Wunderground v.1.15,2013-07-19 14:35:00,
2013-07-19 09:45:00,79.9,68.4,29.86,WSW,237,0.0,2.0,68,0.00,,,0.00,Wunderground v.1.15,2013-07-19 14:45:00,
2013-07-19 09:50:00,79.9,68.4,29.86,WSW,253,1.0,1.0,68,0.00,,,0.00,Wunderground v.1.15,2013-07-19 14:50:00,
2013-07-19 10:00:00,79.7,68.6,29.86,SW,219,0.0,0.0,69,0.00,,,0.00,Wunderground v.1.15,2013-07-19 15:00:00,
2013-07-19 10:05:00,79.8,68.7,29.85,WSW,246,1.0,1.0,69,0.00,,,0.00,Wunderground v.1.15,2013-07-19 15:05:00,
2013-07-19 10:15:00,80.4,69.3,29.85,WSW,242,1.0,1.0,69,0.00,,,0.00,Wunderground v.1.15,2013-07-19 15:15:00,
2013-07-19 10:25:00,81.3,70.2,29.86,WSW,257,0.0,0.0,69,0.00,,,0.00,Wunderground v.1.15,2013-07-19 15:25:00,
2013-07-19 10:30:00,81.6,69.6,29.86,SSW,200,0.0,1.0,67,0.00,,,0.00,Wunderground v.1.15,2013-07-19 15:30:00,
2013-07-19 10:40:00,82.3,70.7,29.85,SSE,166,0.0,4.0,68,0.00,,,0.00,Wunderground v.1.15,2013-07-19 15:40:00,
2013-07-19 10:50:00,83.5,70.5,29.86,West,274,1.0,1.0,65,0.00,,,0.00,Wunderground v.1.15,2013-07-19 15:50:00,
2013-07-19 10:55:00,83.9,71.3,29.86,West,269,0.0,1.0,66,0.00,,,0.00,Wunderground v.1.15,2013-07-19 15:55:00,
2013-07-19 11:05:00,84.3,71.2,29.86,West,281,0.0,1.0,65,0.00,,,0.00,Wunderground v.1.15,2013-07-19 16:05:00,
2013-07-19 11:15:00,84.4,70.4,29.87,WNW,293,1.0,2.0,63,0.00,,,0.00,Wunderground v.1.15,2013-07-19 16:15:00,
2013-07-19 11:20:00,84.6,70.6,29.87,WSW,242,1.0,1.0,63,0.00,,,0.00,Wunderground v.1.15,2013-07-19 16:20:00,
2013-07-19 11:30:00,85.3,70.8,29.87,SW,222,1.0,1.0,62,0.00,,,0.00,Wunderground v.1.15,2013-07-19 16:30:00,
2013-07-19 11:40:00,85.8,70.8,29.87,West,262,1.0,1.0,61,0.00,,,0.00,Wunderground v.1.15,2013-07-19 16:40:00,
2013-07-19 11:45:00,85.9,69.9,29.87,WNW,283,1.0,1.0,59,0.00,,,0.00,Wunderground v.1.15,2013-07-19 16:45:00,
2013-07-19 11:55:00,86.6,70.6,29.86,WNW,298,1.0,2.0,59,0.00,,,0.00,Wunderground v.1.15,2013-07-19 16:55:00,
2013-07-19 12:00:00,86.7,70.7,29.86,NW,307,1.0,1.0,59,0.00,,,0.00,Wunderground v.1.15,2013-07-19 17:00:00,
2013-07-19 12:10:00,86.9,71.3,29.86,South,169,0.0,0.0,60,0.00,,,0.00,Wunderground v.1.15,2013-07-19 17:10:00,
2013-07-19 12:20:00,87.6,71.0,29.86,WNW,300,1.0,2.0,58,0.00,,,0.00,Wunderground v.1.15,2013-07-19 17:20:00,
2013-07-19 12:25:00,87.7,71.1,29.86,SSE,160,1.0,2.0,58,0.00,,,0.00,Wunderground v.1.15,2013-07-19 17:25:00,
2013-07-19 12:31:00,87.9,70.8,29.86,SW,235,1.0,2.0,57,0.00,,,0.00,Wunderground v.1.15,2013-07-19 17:31:00,
2013-07-19 12:41:00,88.1,72.0,29.86,SSW,198,0.0,2.0,59,0.00,,,0.00,Wunderground v.1.15,2013-07-19 17:41:00,
2013-07-19 12:50:00,89.0,72.3,29.85,WNW,293,1.0,1.0,58,0.00,,,0.00,Wunderground v.1.15,2013-07-19 17:50:00,
2013-07-19 13:01:00,88.6,70.9,29.85,WNW,300,1.0,1.0,56,0.00,,,0.00,Wunderground v.1.15,2013-07-19 18:01:00,
2013-07-19 13:11:00,88.2,71.0,29.85,WNW,290,0.0,1.0,57,0.00,,,0.00,Wunderground v.1.15,2013-07-19 18:11:00,
2013-07-19 13:20:00,88.6,70.9,29.85,WNW,291,0.0,0.0,56,0.00,,,0.00,Wunderground v.1.15,2013-07-19 18:20:00,
2013-07-19 13:25:00,88.6,70.4,29.85,WNW,288,1.0,2.0,55,0.00,,,0.00,Wunderground v.1.15,2013-07-19 18:25:00,
2013-07-19 13:30:00,89.2,70.9,29.85,WNW,294,1.0,1.0,55,0.00,,,0.00,Wunderground v.1.15,2013-07-19 18:30:00,
2013-07-19 13:40:00,90.1,70.7,29.85,WSW,243,0.0,0.0,53,0.00,,,0.00,Wunderground v.1.15,2013-07-19 18:40:00,
2013-07-19 13:50:00,90.6,71.7,29.84,North,3,0.0,0.0,54,0.00,,,0.00,Wunderground v.1.15,2013-07-19 18:50:00,
2013-07-19 13:55:00,90.9,70.8,29.84,WNW,300,0.0,0.0,52,0.00,,,0.00,Wunderground v.1.15,2013-07-19 18:55:00,
2013-07-19 14:05:00,90.7,71.2,29.85,WNW,301,0.0,1.0,53,0.00,,,0.00,Wunderground v.1.15,2013-07-19 19:05:00,
2013-07-19 14:10:00,90.5,70.5,29.84,WNW,300,0.0,0.0,52,0.00,,,0.00,Wunderground v.1.15,2013-07-19 19:10:00,
2013-07-19 14:21:00,91.3,69.5,29.84,SW,232,0.0,0.0,49,0.00,,,0.00,Wunderground v.1.15,2013-07-19 19:21:00,
2013-07-19 14:30:00,92.4,70.5,29.84,NNE,30,0.0,0.0,49,0.00,,,0.00,Wunderground v.1.15,2013-07-19 19:30:00,
2013-07-19 14:36:00,92.3,71.0,29.84,NNE,30,0.0,0.0,50,0.00,,,0.00,Wunderground v.1.15,2013-07-19 19:36:00,
2013-07-19 14:45:00,90.9,74.1,29.83,NNE,29,0.0,0.0,58,0.00,,,0.00,Wunderground v.1.15,2013-07-19 19:45:00,
2013-07-19 14:55:00,90.2,71.3,29.84,NW,307,0.0,0.0,54,0.00,,,0.00,Wunderground v.1.15,2013-07-19 19:55:00,
2013-07-19 15:05:00,88.9,70.6,29.83,NW,306,0.0,0.0,55,0.00,,,0.00,Wunderground v.1.15,2013-07-19 20:05:00,
2013-07-19 15:11:00,88.9,71.7,29.83,NW,306,0.0,0.0,57,0.00,,,0.00,Wunderground v.1.15,2013-07-19 20:11:00,
2013-07-19 15:20:00,88.8,69.5,29.84,NW,306,0.0,0.0,53,0.00,,,0.00,Wunderground v.1.15,2013-07-19 20:20:00,
2013-07-19 15:25:00,89.1,67.5,29.84,NW,307,0.0,0.0,49,0.00,,,0.00,Wunderground v.1.15,2013-07-19 20:25:00,
2013-07-19 15:35:00,90.2,69.6,29.83,NNW,328,0.0,0.0,51,0.00,,,0.00,Wunderground v.1.15,2013-07-19 20:35:00,
2013-07-19 15:40:00,90.6,68.2,29.83,NNW,328,0.0,0.0,48,0.00,,,0.00,Wunderground v.1.15,2013-07-19 20:40:00,
2013-07-19 15:45:00,90.9,69.7,29.83,NNW,328,0.0,0.0,50,0.00,,,0.00,Wunderground v.1.15,2013-07-19 20:45:00,
2013-07-19 15:55:00,90.5,70.5,29.83,NNW,328,0.0,0.0,52,0.00,,,0.00,Wunderground v.1.15,2013-07-19 20:55:00,
2013-07-19 16:05:00,92.0,69.5,29.83,NNW,328,0.0,0.0,48,0.00,,,0.00,Wunderground v.1.15,2013-07-19 21:05:00,
2013-07-19 16:15:00,93.6,67.1,29.82,WNW,302,0.0,0.0,42,0.00,,,0.00,Wunderground v.1.15,2013-07-19 21:15:00,
2013-07-19 16:25:00,94.2,66.9,29.82,WNW,294,0.0,1.0,41,0.00,,,0.00,Wunderground v.1.15,2013-07-19 21:25:00,
2013-07-19 16:30:00,94.1,65.4,29.82,WNW,302,0.0,0.0,39,0.00,,,0.00,Wunderground v.1.15,2013-07-19 21:30:00,
2013-07-19 16:40:00,94.4,64.9,29.82,NNW,336,0.0,0.0,38,0.00,,,0.00,Wunderground v.1.15,2013-07-19 21:40:00,
2013-07-19 16:50:00,93.6,61.8,29.82,ENE,72,0.0,0.0,35,0.00,,,0.00,Wunderground v.1.15,2013-07-19 21:50:00,
2013-07-19 17:00:00,93.6,63.4,29.82,ENE,70,0.0,0.0,37,0.00,,,0.00,Wunderground v.1.15,2013-07-19 22:00:00,
2013-07-19 17:10:00,93.4,64.7,29.82,ENE,70,0.0,0.0,39,0.00,,,0.00,Wunderground v.1.15,2013-07-19 22:10:00,
2013-07-19 17:15:00,92.9,64.3,29.82,ENE,70,0.0,0.0,39,0.00,,,0.00,Wunderground v.1.15,2013-07-19 22:15:00,
2013-07-19 17:25:00,92.3,64.5,29.81,ENE,70,0.0,0.0,40,0.00,,,0.00,Wunderground v.1.15,2013-07-19 22:25:00,
2013-07-19 17:35:00,91.7,66.0,29.81,WNW,285,0.0,0.0,43,0.00,,,0.00,Wunderground v.1.15,2013-07-19 22:35:00,
2013-07-19 17:45:00,91.7,66.0,29.81,WNW,287,0.0,0.0,43,0.00,,,0.00,Wunderground v.1.15,2013-07-19 22:45:00,
2013-07-19 17:50:00,91.8,66.8,29.81,NW,309,0.0,0.0,44,0.00,,,0.00,Wunderground v.1.15,2013-07-19 22:50:00,
2013-07-19 18:00:00,91.7,66.7,29.81,NW,306,0.0,1.0,44,0.00,,,0.00,Wunderground v.1.15,2013-07-19 23:00:00,
2013-07-19 18:05:00,91.7,67.3,29.81,NW,306,0.0,1.0,45,0.00,,,0.00,Wunderground v.1.15,2013-07-19 23:05:00,
2013-07-19 18:11:00,91.6,67.3,29.81,NW,306,0.0,0.0,45,0.00,,,0.00,Wunderground v.1.15,2013-07-19 23:11:00,
2013-07-19 18:20:00,91.3,68.9,29.80,NW,306,0.0,0.0,48,0.00,,,0.00,Wunderground v.1.15,2013-07-19 23:20:00,
2013-07-19 18:30:00,90.9,66.6,29.80,NW,306,0.0,0.0,45,0.00,,,0.00,Wunderground v.1.15,2013-07-19 23:30:00,
2013-07-19 18:41:00,90.7,67.1,29.80,NW,307,0.0,0.0,46,0.00,,,0.00,Wunderground v.1.15,2013-07-19 23:41:00,
2013-07-19 18:50:00,90.4,67.4,29.80,NW,308,0.0,0.0,47,0.00,,,0.00,Wunderground v.1.15,2013-07-19 23:50:00,
2013-07-19 18:56:00,90.0,67.7,29.80,NW,307,0.0,0.0,48,0.00,,,0.00,Wunderground v.1.15,2013-07-19 23:56:00,
2013-07-19 19:05:00,89.1,67.5,29.81,NW,307,0.0,0.0,49,0.00,,,0.00,Wunderground v.1.15,2013-07-20 00:05:00,
2013-07-19 19:11:00,88.7,67.7,29.81,NW,308,0.0,0.0,50,0.00,,,0.00,Wunderground v.1.15,2013-07-20 00:11:00,
2013-07-19 19:20:00,87.8,66.8,29.80,NW,308,0.0,0.0,50,0.00,,,0.00,Wunderground v.1.15,2013-07-20 00:20:00,
2013-07-19 19:30:00,87.3,65.8,29.80,NW,308,0.0,0.0,49,0.00,,,0.00,Wunderground v.1.15,2013-07-20 00:30:00,
2013-07-19 19:41:00,87.2,65.7,29.80,NW,308,0.0,0.0,49,0.00,,,0.00,Wunderground v.1.15,2013-07-20 00:41:00,
2013-07-19 19:50:00,86.7,65.8,29.80,NW,308,0.0,0.0,50,0.00,,,0.00,Wunderground v.1.15,2013-07-20 00:50:00,
2013-07-19 20:00:00,86.5,65.7,29.81,NW,308,0.0,0.0,50,0.00,,,0.00,Wunderground v.1.15,2013-07-20 01:00:00,
2013-07-19 20:10:00,86.3,66.0,29.81,NW,308,0.0,0.0,51,0.00,,,0.00,Wunderground v.1.15,2013-07-20 01:10:00,
2013-07-19 20:15:00,86.1,65.9,29.81,NW,308,0.0,0.0,51,0.00,,,0.00,Wunderground v.1.15,2013-07-20 01:15:00,
2013-07-19 20:25:00,85.8,66.1,29.81,NW,307,0.0,0.0,52,0.00,,,0.00,Wunderground v.1.15,2013-07-20 01:25:00,
2013-07-19 20:35:00,85.4,66.3,29.81,NW,308,0.0,0.0,53,0.00,,,0.00,Wunderground v.1.15,2013-07-20 01:35:00,
2013-07-19 20:40:00,85.1,67.1,29.81,NW,307,0.0,0.0,55,0.00,,,0.00,Wunderground v.1.15,2013-07-20 01:40:00,
2013-07-19 20:50:00,84.4,66.5,29.81,NW,308,0.0,0.0,55,0.00,,,0.00,Wunderground v.1.15,2013-07-20 01:50:00,
2013-07-19 21:01:00,83.8,65.9,29.81,NW,308,0.0,0.0,55,0.00,,,0.00,Wunderground v.1.15,2013-07-20 02:01:00,
2013-07-19 21:10:00,83.4,65.0,29.81,NW,307,0.0,0.0,54,0.00,,,0.00,Wunderground v.1.15,2013-07-20 02:10:00,
2013-07-19 21:20:00,82.7,64.9,29.82,NW,308,0.0,0.0,55,0.00,,,0.00,Wunderground v.1.15,2013-07-20 02:20:00,
2013-07-19 21:30:00,82.2,63.4,29.82,NW,308,0.0,0.0,53,0.00,,,0.00,Wunderground v.1.15,2013-07-20 02:30:00,
2013-07-19 21:40:00,82.0,63.2,29.83,NW,307,0.0,0.0,53,0.00,,,0.00,Wunderground v.1.15,2013-07-20 02:40:00,
2013-07-19 21:45:00,82.0,63.2,29.83,NW,308,0.0,0.0,53,0.00,,,0.00,Wunderground v.1.15,2013-07-20 02:45:00,
2013-07-19 21:55:00,81.8,63.5,29.83,NW,307,0.0,0.0,54,0.00,,,0.00,Wunderground v.1.15,2013-07-20 02:55:00,
2013-07-19 22:05:00,81.3,63.6,29.84,NW,308,0.0,0.0,55,0.00,,,0.00,Wunderground v.1.15,2013-07-20 03:05:00,
2013-07-19 22:10:00,81.1,63.9,29.84,NW,308,0.0,0.0,56,0.00,,,0.00,Wunderground v.1.15,2013-07-20 03:10:00,
2013-07-19 22:20:00,80.6,64.0,29.84,NW,308,0.0,0.0,57,0.00,,,0.00,Wunderground v.1.15,2013-07-20 03:20:00,
2013-07-19 22:30:00,80.2,64.1,29.84,NW,308,0.0,0.0,58,0.00,,,0.00,Wunderground v.1.15,2013-07-20 03:30:00,
2013-07-19 22:35:00,80.1,64.0,29.84,NW,307,0.0,0.0,58,0.00,,,0.00,Wunderground v.1.15,2013-07-20 03:35:00,
2013-07-19 22:45:00,79.8,64.2,29.84,NW,308,0.0,0.0,59,0.00,,,0.00,Wunderground v.1.15,2013-07-20 03:45:00,
2013-07-19 22:55:00,79.5,63.9,29.84,NW,308,0.0,0.0,59,0.00,,,0.00,Wunderground v.1.15,2013-07-20 03:55:00,
2013-07-19 23:00:00,79.3,63.7,29.85,NW,308,0.0,0.0,59,0.00,,,0.00,Wunderground v.1.15,2013-07-20 04:00:00,
2013-07-19 23:05:00,79.2,63.6,29.85,NW,307,0.0,0.0,59,0.00,,,0.00,Wunderground v.1.15,2013-07-20 04:05:00,
2013-07-19 23:10:00,79.1,63.5,29.85,NW,307,0.0,0.0,59,0.00,,,0.00,Wunderground v.1.15,2013-07-20 04:10:00,
2013-07-19 23:15:00,79.0,63.9,29.85,NW,308,0.0,0.0,60,0.00,,,0.00,Wunderground v.1.15,2013-07-20 04:15:00,
2013-07-19 23:20:00,78.8,64.2,29.85,NW,308,0.0,0.0,61,0.00,,,0.00,Wunderground v.1.15,2013-07-20 04:20:00,
2013-07-19 23:25:00,78.6,64.0,29.85,NW,308,0.0,0.0,61,0.00,,,0.00,Wunderground v.1.15,2013-07-20 04:25:00,
2013-07-19 23:30:00,78.5,64.4,29.86,NW,308,0.0,0.0,62,0.00,,,0.00,Wunderground v.1.15,2013-07-20 04:30:00,
2013-07-19 23:35:00,78.4,64.3,29.86,NW,308,0.0,0.0,62,0.00,,,0.00,Wunderground v.1.15,2013-07-20 04:35:00,
2013-07-19 23:40:00,78.1,64.5,29.86,NW,307,0.0,0.0,63,0.00,,,0.00,Wunderground v.1.15,2013-07-20 04:40:00,
2013-07-19 23:46:00,77.8,64.6,29.86,NW,308,0.0,0.0,64,0.00,,,0.00,Wunderground v.1.15,2013-07-20 04:46:00,
2013-07-19 23:55:00,77.3,64.6,29.86,NW,308,0.0,0.0,65,0.00,,,0.00,Wunderground v.1.15,2013-07-20 04:55:00,